Regional Weather Roundup
Issued by NWS

Home | Current Version | Previous Version | Text Only | Print | Product List | Glossary Off
Versions: 1 2 3 4 5 6 7 8 9 10 11 12 13 14 15 16 17 18 19 20 21 22 23 24 25 26 27 28 29 30 31 32 33 34 35 36 37 38 39 40 41 42 43 44 45 46 47 48 49 50

000
ASUS43 KOAX 312110
RWRNE

WEATHER ROUNDUP FOR NEBRASKA
NATIONAL WEATHER SERVICE OMAHA NE
400 PM CDT WED AUG 31 2016

NOTES: SATELLITE DATA IS BEING USED TO AUGMENT CLOUD COVER ABOVE
       12000 FEET.
       "FAIR" INDICATES FEW OR NO CLOUDS BELOW 12,000 FEET WITH NO
       SIGNIFICANT WEATHER AND/OR OBSTRUCTIONS TO VISIBILITY.

  * THESE STATIONS DO NOT REPORT WEATHER SUCH AS RAIN...SNOW OR FOG.

NEZ001>004-019>022-054>056-312200-
NEBRASKA PANHANDLE

CITY           SKY/WX    TMP DP  RH WIND       PRES   REMARKS
SCOTTSBLUFF    MOSUNNY   81  59  47 SE16G24   30.20F
ALLIANCE       MOSUNNY   80  56  43 SE18      30.22F
CHADRON        MOSUNNY   83  53  35 SE17G23   30.17F
KIMBALL        MOSUNNY   74  59  59 SE9       30.26F
SIDNEY         PTSUNNY   79  58  48 SE12      30.24F
$$

NEZ057>060-069>072-079>082-312200-
SOUTHWEST NEBRASKA

CITY           SKY/WX    TMP DP  RH WIND       PRES   REMARKS
NORTH PLATTE   SUNNY     82  59  45 SE17      30.20F
IMPERIAL       LGT RAIN  70  65  84 E8        30.22F
LEXINGTON      MOSUNNY   79  62  55 E10       30.20F
MCCOOK         MOSUNNY   75  63  66 E9        30.19F
OGALLALA       PTSUNNY   79  63  58 S10       30.21F
$$

NEZ005>010-023>029-035>040-094-312200-
NORTH CENTRAL NEBRASKA

CITY           SKY/WX    TMP DP  RH WIND       PRES   REMARKS
VALENTINE      MOSUNNY   82  58  43 SE12      30.20F
AINSWORTH      SUNNY     82  59  46 E8        30.21F
BROKEN BOW     MOSUNNY   80  63  55 SE9       30.20F
O`NEILL        SUNNY     83  56  39 E7        30.21S
ORD            SUNNY     82  56  40 E10       30.18F
THEDFORD       SUNNY     80  58  46 SE12G18   30.22F
$$

NEZ041-046>049-061>064-073>077-083>087-312200-
SOUTH CENTRAL NEBRASKA

CITY           SKY/WX    TMP DP  RH WIND       PRES   REMARKS
GRAND ISLAND   SUNNY     83  56  39 E8        30.18F
AURORA         SUNNY     80  61  52 NE9       30.18S
HASTINGS       MOSUNNY   80  65  59 E6        30.19F
HEBRON         PTSUNNY   79  65  61 E9        30.15F
HOLDREGE       MOSUNNY   77  62  59 E6        30.20S
KEARNEY *      CLOUDY    79  64  61 E9        30.18F
YORK           SUNNY     81  54  39 NE9       30.18S
$$

NEZ011>018-030>034-042>045-312200-
NORTHEAST NEBRASKA

CITY           SKY/WX    TMP DP  RH WIND       PRES   REMARKS
NORFOLK        SUNNY     81  58  45 E9        30.18F
ALBION         SUNNY     80  59  48 E5        30.19S
BLAIR          SUNNY     79  60  51 NE7       30.16F
FREMONT        SUNNY     78  60  53 N8        30.17F
TEKAMAH        SUNNY     81  59  47 NE7       30.16F
WAYNE          SUNNY     78  63  60 E5        30.20S
$$

NEZ050>053-065>068-078-088>093-312200-
SOUTHEAST NEBRASKA

CITY           SKY/WX    TMP DP  RH WIND       PRES   REMARKS
LINCOLN        MOSUNNY   82  61  48 NE9       30.16F
OMAHA EPPLEY   PTSUNNY   82  56  40 NE9       30.15F
BEATRICE       CLOUDY    78  60  53 NE10      30.15S
FALLS CITY     MOSUNNY   79  62  56 NE6       30.11F
NEBRASKA CITY  CLOUDY    78  56  46 NE10      30.14F
PLATTSMOUTH    PTSUNNY   81  60  49 NE6       30.15F
$$

NEZ044-045-051>053-067-312200-
OMAHA AREA

CITY           SKY/WX    TMP DP  RH WIND       PRES   REMARKS
OMAHA EPPLEY   PTSUNNY   82  56  40 NE9       30.15F
BLAIR          SUNNY     79  60  51 NE7       30.16F
FREMONT        SUNNY     78  60  53 N8        30.17F
MILLARD        MOSUNNY  N/A N/A N/A N3        30.14F
OFFUTT AFB     MOSUNNY   81  59  47 NE8       30.14F
PLATTSMOUTH    PTSUNNY   81  60  49 NE6       30.15F
WAHOO          FAIR      79  61  54 NE8       30.16F
$$




USA.gov is the U.S. government's official web portal to all federal, state and local government web resources and services.